Location: Milano
(45.4642°N, 9.1900°E)
Time: 03:47:09
(UTC+02:00)

ISS - Pass Details

Date: 12 May 2021
Orbit: 417 x 422 km, 51.6° (Epoch: 14 June)

Event Time Altitude Azimuth Distance (km) Brightness Sun altitude
Rises 04:24:25 0° 298° (WNW) 2,374 -0.1 -13.8°
Reaches altitude 10° 04:26:35 10° 305° (NW) 1,509 -1.0 -13.6°
Maximum altitude 04:29:52 47° 20° (NNE) 567 -2.7 -13.1°
Drops below altitude 10° 04:33:09 10° 97° (E) 1,506 -0.4 -12.7°
Sets 04:35:18 0° 103° (ESE) 2,369 0.6 -12.5°
